パンスターズ彗星

C/2017 F2 ( PanSTARRS )

English version
Home page
Updated on May 20, 2019

---------------------------------------------------------------------

・ プロフィール

発見日 2017年3月31日
発見光度 21.2等
発見者 Pan-STARRS 1 telescope (Haleakala)

・ 写真集

・ 軌道要素

Epoch 2017 Nov. 23.0 TT = JDT 2458080.5
T 2017 Nov. 26.38393 TT                                 MPCW
q   6.9276283            (2000.0)            P               Q
z  -0.0007684      Peri.  134.91715     -0.87745868     -0.22767285
 +/-0.0000038      Node    38.66788     -0.22113517     -0.58902803
e   1.0053231      Incl.   42.50775     +0.42563540     -0.77537801
From 50 observations 2017 Mar. 31-2018 Dec. 12, mean residual 0".5.

・ 光度変化

        m1 = 7.5 + 5 logΔ + 10.0 log r

---------------------------------------------------------------------

軌道要素はM.P.E.C. 2019-J142に掲載されたものです。
光度グラフはComet for Windowsで作成したものです。

---------------------------------------------------------------------

Copyright(C) Seiichi Yoshida (comet@aerith.net). All rights reserved.